San Diego Brown, CA

4:57 PM PDT on May 25, 2017 (GMT -0700)
Brown Municipal

Weather History for KSDM - February, 2013

Change the Weather History Date:

Monday, February 11, 2013

  Actual Average Record
Temperature  
Mean Temperature 47 °F 55 °F  
Max Temperature 57 °F 65 °F 88 °F (2015)
Min Temperature 37 °F 45 °F 35 °F (2011)
Degree Days  
Heating Degree Days 18 10  
Month to date heating degree days 110  
Since 1 July heating degree days 1014  
Cooling Degree Days 0 0  
Month to date cooling degree days 0  
Year to date cooling degree days 3  
Moisture  
Dew Point 41 °F    
Average Humidity 75    
Maximum Humidity 97    
Minimum Humidity 51    
Precipitation  
Precipitation 0.00 in 0.09 in 0.98 in (2005)
Month to date precipitation 0.69  
Year to date precipitation 3.17  
Sea Level Pressure  
Sea Level Pressure 30.16 in    
Wind  
Wind Speed 5 mph (West)    
Max Wind Speed 12 mph    
Max Gust Speed 20 mph    
Visibility 10 miles    
Events      
T = Trace of Precipitation, MM = Missing Value Source: NWS Daily Summary

Daily Weather History Graph

Daily Weather History Graph

Search for Another Location

Airport or City:

Trip Planner

Search our weather history database for the weather conditions in past years. The results will help you decide how hot, cold, wet, or windy it might be!

Date:

Astronomy

Feb. 11, 2013 Rise Set
Actual Time 6:34 AM PST 5:30 PM PST
Civil Twilight 6:08 AM PST 5:55 PM PST
Nautical Twilight 5:39 AM PST 6:24 PM PST
Astronomical Twilight 5:11 AM PST 6:53 PM PST
Moon 7:09 AM PST (2/11) 7:22 PM PST (2/11)
Length of Visible Light 11h 46m
Length of Day
10h 56m
Waxing Crescent, 3% of the Moon is Illuminated
Feb 11
Waxing Crescent
Feb 17
First Quarter
Feb 25
Full
Mar 4
Last Quarter
Mar 11
New

Hourly Weather History & Observations

Time (PST) Temp. Windchill Dew Point Humidity Pressure Visibility Wind Dir Wind Speed Gust Speed Precip Events Conditions
4:53 AM 39.9 °F 36.7 °F 37.0 °F 89% 30.08 in 10.0 mi ENE 4.6 mph - N/A   Clear
6:53 AM 37.9 °F 34.4 °F 37.0 °F 97% 30.10 in 6.0 mi SE 4.6 mph - N/A   Clear
7:53 AM 44.1 °F 41.5 °F 42.1 °F 93% 30.13 in 7.0 mi SE 4.6 mph - N/A   Clear
8:53 AM 48.9 °F - 41.0 °F 74% 30.14 in 10.0 mi SE 4.6 mph - N/A   Clear
9:53 AM 53.1 °F - 41.0 °F 64% 30.16 in 10.0 mi Calm Calm - N/A   Clear
10:53 AM 55.0 °F - 39.0 °F 55% 30.15 in 10.0 mi Calm Calm - N/A   Scattered Clouds
11:53 AM 57.0 °F - 39.0 °F 51% 30.13 in 10.0 mi NNE 6.9 mph - N/A   Partly Cloudy
12:53 PM 55.9 °F - 42.1 °F 60% 30.12 in 10.0 mi West 11.5 mph 17.3 mph N/A   Mostly Cloudy
1:53 PM 55.0 °F - 43.0 °F 64% 30.11 in 10.0 mi West 10.4 mph 19.6 mph N/A   Clear
2:53 PM 55.9 °F - 42.1 °F 60% 30.12 in 10.0 mi West 6.9 mph - N/A   Clear
3:53 PM 55.0 °F - 42.1 °F 62% 30.12 in 10.0 mi West 10.4 mph - N/A   Mostly Cloudy
4:53 PM 53.1 °F - 44.1 °F 71% 30.15 in 10.0 mi West 4.6 mph - N/A   Overcast
5:53 PM 51.1 °F - 44.1 °F 77% 30.16 in 10.0 mi West 5.8 mph - N/A   Mostly Cloudy
6:53 PM 51.1 °F - 44.1 °F 77% 30.18 in 10.0 mi NW 3.5 mph - N/A   Clear
7:53 PM 46.0 °F - 41.0 °F 83% 30.20 in 10.0 mi Calm Calm - N/A   Clear
8:53 PM 48.0 °F - 43.0 °F 83% 30.21 in 10.0 mi Calm Calm - N/A   Clear
9:53 PM 45.0 °F - 41.0 °F 86% 30.22 in 10.0 mi Calm Calm - N/A   Clear
10:53 PM 45.0 °F - 42.1 °F 90% 30.24 in 10.0 mi Calm Calm - N/A   Clear
11:53 PM 39.9 °F 35.1 °F 37.9 °F 93% 30.25 in 10.0 mi ESE 6.9 mph - N/A   Clear